Station Historical Data
Daily Summary for June 12, 2017 Units:  English    Metric   Both
« Previous Day
Next Day »
Daily Weekly Monthly Yearly Custom
  High: Low: Average:
Temperature: 85.9 °F 69.3 °F 77.2 °F
Dew Point: 66.8 °F 59.5 °F 63.1 °F
Humidity: 73% 45% 62%
Wind Speed: 15.0mph 0.0mph 5.5mph
Wind Gust: 26.0mph - -
Wind- - WSW
Pressure: 30.01 in 29.90 in -
Precipitation: 0.00 in    
Historical Graphs
 
 
Tabular Data for June 12, 2017
Time Temperature Dew Point Pressure Wind Wind Speed Wind Gust Humidity Rainfall Rate (Hourly)
00:04 71.2 °F 59.7 °F 29.94 in Calm     67% 0.00 in
00:09 71.1 °F 59.6 °F 29.94 in Calm   2.0 mph 67% 0.00 in
00:14 71.0 °F 59.5 °F 29.95 in Calm   2.0 mph 67% 0.00 in
00:19 70.8 °F 59.7 °F 29.95 in Calm   1.0 mph 68% 0.00 in
00:24 70.5 °F 59.8 °F 29.95 in Calm     69% 0.00 in
00:29 70.1 °F 59.5 °F 29.95 in Calm     69% 0.00 in
00:34 69.8 °F 60.0 °F 29.95 in Calm     71% 0.00 in
00:39 69.5 °F 59.7 °F 29.95 in Calm     71% 0.00 in
00:44 69.3 °F 59.9 °F 29.95 in Calm     72% 0.00 in
00:54 69.7 °F 60.7 °F 29.95 in Calm   3.0 mph 73% 0.00 in
00:59 70.3 °F 60.8 °F 29.95 in SSW 2.0 mph 4.0 mph 72% 0.00 in
01:04 70.9 °F 61.0 °F 29.95 in SW 1.0 mph 4.0 mph 71% 0.00 in
01:09 71.6 °F 61.3 °F 29.95 in SW 1.0 mph 4.0 mph 70% 0.00 in
01:14 72.0 °F 61.3 °F 29.95 in SW 2.0 mph 5.0 mph 69% 0.00 in
01:19 72.7 °F 61.1 °F 29.95 in SW 3.0 mph 5.0 mph 67% 0.00 in
01:24 73.1 °F 61.1 °F 29.95 in SW 1.0 mph 6.0 mph 66% 0.00 in
01:29 73.1 °F 61.1 °F 29.95 in WSW 3.0 mph 6.0 mph 66% 0.00 in
01:34 73.4 °F 61.3 °F 29.95 in SW 3.0 mph 6.0 mph 66% 0.00 in
01:39 73.4 °F 60.9 °F 29.94 in SW 3.0 mph 6.0 mph 65% 0.00 in
01:44 73.6 °F 61.1 °F 29.94 in SSW 3.0 mph 7.0 mph 65% 0.00 in
01:49 74.0 °F 61.0 °F 29.95 in SW 4.0 mph 7.0 mph 64% 0.00 in
01:54 74.2 °F 61.2 °F 29.96 in SW 1.0 mph 7.0 mph 64% 0.00 in
01:59 74.3 °F 61.3 °F 29.96 in Calm   6.0 mph 64% 0.00 in
02:04 74.2 °F 61.2 °F 29.96 in WSW 2.0 mph 9.0 mph 64% 0.00 in
02:09 74.5 °F 61.1 °F 29.97 in SW 3.0 mph 9.0 mph 63% 0.00 in
02:14 74.6 °F 61.2 °F 29.97 in SW 3.0 mph 8.0 mph 63% 0.00 in
02:19 74.6 °F 61.2 °F 29.97 in SW 2.0 mph 7.0 mph 63% 0.00 in
02:24 74.6 °F 61.2 °F 29.97 in SW 1.0 mph 8.0 mph 63% 0.00 in
02:29 74.3 °F 61.3 °F 29.98 in South 5.0 mph 8.0 mph 64% 0.00 in
02:34 74.6 °F 61.2 °F 29.98 in SW 2.0 mph 5.0 mph 63% 0.00 in
02:39 74.4 °F 61.4 °F 29.98 in SW 3.0 mph 6.0 mph 64% 0.00 in
02:44 74.1 °F 61.1 °F 29.98 in SW 3.0 mph 6.0 mph 64% 0.00 in
02:49 74.1 °F 61.6 °F 29.98 in SW 3.0 mph 7.0 mph 65% 0.00 in
02:54 74.3 °F 61.3 °F 29.98 in SW 4.0 mph 9.0 mph 64% 0.00 in
02:59 74.4 °F 61.4 °F 29.98 in WSW 2.0 mph 7.0 mph 64% 0.00 in
03:04 74.4 °F 61.9 °F 29.98 in West 2.0 mph 7.0 mph 65% 0.00 in
03:09 74.3 °F 61.8 °F 29.98 in SW 4.0 mph 7.0 mph 65% 0.00 in
03:14 74.4 °F 61.9 °F 29.98 in SW 4.0 mph 10.0 mph 65% 0.00 in
03:19 74.5 °F 62.0 °F 29.98 in SW 4.0 mph 10.0 mph 65% 0.00 in
03:24 74.5 °F 62.0 °F 29.98 in SSW 5.0 mph 8.0 mph 65% 0.00 in
03:29 74.6 °F 62.1 °F 29.98 in WSW 9.0 mph 11.0 mph 65% 0.00 in
03:34 74.7 °F 62.1 °F 29.98 in South 3.0 mph 10.0 mph 65% 0.00 in
03:39 74.7 °F 62.1 °F 29.98 in SW 6.0 mph 12.0 mph 65% 0.00 in
03:44 74.7 °F 62.1 °F 29.98 in WSW 5.0 mph 12.0 mph 65% 0.00 in
03:49 74.8 °F 62.2 °F 29.98 in SW 5.0 mph 13.0 mph 65% 0.00 in
03:54 74.9 °F 62.3 °F 29.98 in SW 5.0 mph 13.0 mph 65% 0.00 in
03:59 74.8 °F 62.2 °F 29.98 in WSW 4.0 mph 10.0 mph 65% 0.00 in
04:04 74.8 °F 62.7 °F 29.98 in WSW 5.0 mph 11.0 mph 66% 0.00 in
04:09 74.8 °F 62.2 °F 29.98 in WSW 3.0 mph 10.0 mph 65% 0.00 in
04:14 74.9 °F 62.3 °F 29.98 in WSW 4.0 mph 11.0 mph 65% 0.00 in
04:19 74.9 °F 62.3 °F 29.97 in WSW 7.0 mph 10.0 mph 65% 0.00 in
04:24 74.9 °F 62.3 °F 29.97 in SW 6.0 mph 11.0 mph 65% 0.00 in
04:29 74.8 °F 62.2 °F 29.97 in SSW 4.0 mph 10.0 mph 65% 0.00 in
04:34 74.9 °F 62.3 °F 29.97 in SW 4.0 mph 10.0 mph 65% 0.00 in
04:39 75.0 °F 62.4 °F 29.97 in WSW 6.0 mph 13.0 mph 65% 0.00 in
04:44 75.1 °F 62.5 °F 29.97 in WSW 6.0 mph 13.0 mph 65% 0.00 in
04:49 75.0 °F 62.4 °F 29.97 in WSW 6.0 mph 12.0 mph 65% 0.00 in
04:54 75.0 °F 62.4 °F 29.97 in WSW 7.0 mph 12.0 mph 65% 0.00 in
04:59 74.8 °F 62.2 °F 29.96 in WSW 6.0 mph 13.0 mph 65% 0.00 in
05:04 74.4 °F 62.3 °F 29.96 in WSW 6.0 mph 13.0 mph 66% 0.00 in
05:09 74.0 °F 62.3 °F 29.96 in WSW 5.0 mph 12.0 mph 67% 0.00 in
05:14 73.6 °F 62.4 °F 29.96 in WSW 4.0 mph 12.0 mph 68% 0.00 in
05:19 73.1 °F 62.3 °F 29.97 in WNW 5.0 mph 10.0 mph 69% 0.00 in
05:24 72.7 °F 61.9 °F 29.97 in WSW 2.0 mph 12.0 mph 69% 0.00 in
05:29 72.2 °F 61.9 °F 29.97 in WSW 2.0 mph 9.0 mph 70% 0.00 in
05:34 72.0 °F 62.1 °F 29.97 in SW 8.0 mph 9.0 mph 71% 0.00 in
05:39 71.9 °F 62.0 °F 29.97 in WSW 4.0 mph 10.0 mph 71% 0.00 in
05:44 71.8 °F 61.9 °F 29.98 in WSW 4.0 mph 10.0 mph 71% 0.00 in
05:49 71.8 °F 61.9 °F 29.98 in WSW 4.0 mph 8.0 mph 71% 0.00 in
05:54 72.0 °F 62.1 °F 29.98 in WSW 2.0 mph 8.0 mph 71% 0.00 in
05:59 72.2 °F 61.9 °F 29.98 in SW 1.0 mph 8.0 mph 70% 0.00 in
06:04 72.4 °F 62.1 °F 29.98 in WSW 4.0 mph 10.0 mph 70% 0.00 in
06:09 72.5 °F 62.2 °F 29.99 in WSW 4.0 mph 10.0 mph 70% 0.00 in
06:14 72.5 °F 62.2 °F 29.99 in WSW 4.0 mph 8.0 mph 70% 0.00 in
06:19 72.5 °F 62.2 °F 29.99 in WSW 4.0 mph 8.0 mph 70% 0.00 in
06:24 72.4 °F 62.1 °F 30.00 in WSW 4.0 mph 8.0 mph 70% 0.00 in
06:29 72.1 °F 62.2 °F 30.00 in WSW 3.0 mph 8.0 mph 71% 0.00 in
06:34 72.1 °F 62.2 °F 30.00 in WSW 4.0 mph 9.0 mph 71% 0.00 in
06:39 72.1 °F 62.2 °F 30.00 in WSW 4.0 mph 9.0 mph 71% 0.00 in
06:44 72.1 °F 62.2 °F 30.00 in WSW 4.0 mph 7.0 mph 71% 0.00 in
06:49 72.2 °F 62.3 °F 30.00 in SW 4.0 mph 7.0 mph 71% 0.00 in
06:54 72.4 °F 62.5 °F 30.01 in WSW 1.0 mph 9.0 mph 71% 0.00 in
06:59 72.6 °F 62.7 °F 30.01 in WSW 2.0 mph 7.0 mph 71% 0.00 in
07:04 72.8 °F 62.8 °F 30.01 in WSW 4.0 mph 9.0 mph 71% 0.00 in
07:09 73.1 °F 62.7 °F 30.01 in WSW 4.0 mph 12.0 mph 70% 0.00 in
07:14 73.3 °F 62.9 °F 30.01 in WSW 4.0 mph 12.0 mph 70% 0.00 in
07:19 73.5 °F 62.7 °F 30.01 in WSW 4.0 mph 9.0 mph 69% 0.00 in
07:24 73.6 °F 62.8 °F 30.01 in WSW 4.0 mph 11.0 mph 69% 0.00 in
07:29 73.7 °F 62.9 °F 30.01 in WSW 4.0 mph 11.0 mph 69% 0.00 in
07:34 73.9 °F 62.7 °F 30.01 in West 5.0 mph 15.0 mph 68% 0.00 in
07:39 74.1 °F 62.9 °F 30.01 in West 6.0 mph 12.0 mph 68% 0.00 in
07:44 74.3 °F 63.5 °F 30.01 in West 10.0 mph 13.0 mph 69% 0.00 in
07:49 74.4 °F 63.1 °F 30.01 in WSW 8.0 mph 13.0 mph 68% 0.00 in
07:54 74.2 °F 63.0 °F 30.01 in West 6.0 mph 14.0 mph 68% 0.00 in
07:59 74.0 °F 62.8 °F 30.01 in West 6.0 mph 16.0 mph 68% 0.00 in
08:04 73.8 °F 62.6 °F 30.00 in SW 5.0 mph 13.0 mph 68% 0.00 in
08:09 73.6 °F 62.8 °F 30.00 in SW 7.0 mph 15.0 mph 69% 0.00 in
08:14 73.6 °F 62.8 °F 30.00 in WSW 6.0 mph 15.0 mph 69% 0.00 in
08:19 73.9 °F 63.1 °F 30.00 in WSW 6.0 mph 12.0 mph 69% 0.00 in
08:24 73.8 °F 63.0 °F 30.00 in WSW 7.0 mph 14.0 mph 69% 0.00 in
08:29 74.1 °F 63.3 °F 30.00 in WSW 6.0 mph 14.0 mph 69% 0.00 in
08:34 74.4 °F 63.1 °F 30.00 in WSW 6.0 mph 14.0 mph 68% 0.00 in
08:39 74.7 °F 63.0 °F 30.00 in SSW 7.0 mph 12.0 mph 67% 0.00 in
08:44 74.6 °F 63.3 °F 30.00 in WSW 8.0 mph 15.0 mph 68% 0.00 in
08:49 74.5 °F 63.2 °F 30.00 in WSW 7.0 mph 16.0 mph 68% 0.00 in
08:54 74.9 °F 63.6 °F 30.00 in SSW 4.0 mph 12.0 mph 68% 0.00 in
09:04 75.1 °F 63.8 °F 29.99 in SW 4.0 mph 15.0 mph 68% 0.00 in
09:09 75.3 °F 63.6 °F 29.99 in SW 7.0 mph 17.0 mph 67% 0.00 in
09:14 75.4 °F 64.1 °F 29.98 in SW 7.0 mph 17.0 mph 68% 0.00 in
09:19 76.0 °F 63.8 °F 29.97 in SW 7.0 mph 16.0 mph 66% 0.00 in
09:24 76.2 °F 63.6 °F 29.97 in WSW 10.0 mph 14.0 mph 65% 0.00 in
09:29 77.0 °F 64.3 °F 29.99 in SW 6.0 mph 10.0 mph 65% 0.00 in
09:34 77.2 °F 64.1 °F 30.00 in SW 8.0 mph 15.0 mph 64% 0.00 in
09:39 77.7 °F 65.0 °F 30.00 in WSW 6.0 mph 15.0 mph 65% 0.00 in
09:44 77.8 °F 65.1 °F 30.00 in WSW 6.0 mph 16.0 mph 65% 0.00 in
09:49 78.4 °F 64.3 °F 30.00 in WSW 6.0 mph 16.0 mph 62% 0.00 in
09:54 78.8 °F 65.1 °F 30.00 in West 6.0 mph 12.0 mph 63% 0.00 in
09:59 78.2 °F 64.1 °F 30.00 in WNW 11.0 mph 14.0 mph 62% 0.00 in
10:04 77.6 °F 64.9 °F 30.00 in WNW 5.0 mph 14.0 mph 65% 0.00 in
10:09 77.4 °F 64.3 °F 30.00 in WSW 7.0 mph 14.0 mph 64% 0.00 in
10:14 77.5 °F 64.4 °F 30.00 in WSW 7.0 mph 14.0 mph 64% 0.00 in
10:19 78.1 °F 65.4 °F 30.00 in WSW 8.0 mph 17.0 mph 65% 0.00 in
10:24 78.4 °F 64.3 °F 30.00 in SW 6.0 mph 16.0 mph 62% 0.00 in
10:29 78.9 °F 64.3 °F 30.00 in WSW 11.0 mph 21.0 mph 61% 0.00 in
10:34 79.0 °F 64.9 °F 29.99 in SW 6.0 mph 14.0 mph 62% 0.00 in
10:39 79.1 °F 64.5 °F 29.99 in WSW 9.0 mph 18.0 mph 61% 0.00 in
10:44 78.6 °F 64.0 °F 29.99 in WSW 10.0 mph 20.0 mph 61% 0.00 in
10:49 78.6 °F 64.0 °F 29.99 in WSW 10.0 mph 20.0 mph 61% 0.00 in
10:54 79.2 °F 64.6 °F 29.99 in WSW 9.0 mph 20.0 mph 61% 0.00 in
10:59 79.3 °F 65.1 °F 29.99 in WSW 9.0 mph 20.0 mph 62% 0.00 in
11:04 79.5 °F 64.9 °F 29.99 in WSW 14.0 mph 17.0 mph 61% 0.00 in
11:09 78.5 °F 64.4 °F 29.99 in WSW 13.0 mph 20.0 mph 62% 0.00 in
11:14 78.2 °F 64.1 °F 29.99 in WSW 10.0 mph 21.0 mph 62% 0.00 in
11:19 78.5 °F 64.4 °F 29.99 in West 7.0 mph 19.0 mph 62% 0.00 in
11:24 78.1 °F 64.9 °F 29.99 in SW 14.0 mph 21.0 mph 64% 0.00 in
11:29 78.0 °F 63.9 °F 29.99 in WSW 5.0 mph 16.0 mph 62% 0.00 in
11:34 78.2 °F 64.6 °F 29.99 in WSW 9.0 mph 19.0 mph 63% 0.00 in
11:39 78.2 °F 64.6 °F 29.99 in WSW 9.0 mph 19.0 mph 63% 0.00 in
11:44 78.6 °F 64.5 °F 29.99 in WSW 8.0 mph 18.0 mph 62% 0.00 in
11:49 78.7 °F 65.0 °F 29.99 in WSW 8.0 mph 18.0 mph 63% 0.00 in
11:54 78.3 °F 65.1 °F 29.99 in WSW 8.0 mph 20.0 mph 64% 0.00 in
11:59 77.9 °F 64.7 °F 29.99 in WSW 9.0 mph 20.0 mph 64% 0.00 in
12:04 78.0 °F 64.8 °F 29.98 in SSW 7.0 mph 17.0 mph 64% 0.00 in
12:09 77.8 °F 64.6 °F 29.98 in SW 6.0 mph 19.0 mph 64% 0.00 in
12:14 78.6 °F 65.4 °F 29.98 in WSW 10.0 mph 13.0 mph 64% 0.00 in
12:19 78.4 °F 65.2 °F 29.98 in WSW 10.0 mph 18.0 mph 64% 0.00 in
12:24 77.9 °F 64.3 °F 29.98 in West 5.0 mph 18.0 mph 63% 0.00 in
12:29 78.2 °F 65.0 °F 29.98 in WSW 11.0 mph 17.0 mph 64% 0.00 in
12:34 78.4 °F 65.2 °F 29.98 in West 15.0 mph 20.0 mph 64% 0.00 in
12:39 78.3 °F 64.7 °F 29.98 in WSW 10.0 mph 20.0 mph 63% 0.00 in
12:44 78.0 °F 64.8 °F 29.98 in WSW 10.0 mph 21.0 mph 64% 0.00 in
12:49 78.2 °F 65.0 °F 29.97 in WSW 10.0 mph 21.0 mph 64% 0.00 in
12:54 78.5 °F 65.8 °F 29.98 in West 6.0 mph 15.0 mph 65% 0.00 in
12:59 79.1 °F 65.4 °F 29.97 in SW 11.0 mph 21.0 mph 63% 0.00 in
13:04 78.7 °F 65.0 °F 29.97 in WNW 8.0 mph 19.0 mph 63% 0.00 in
13:09 79.3 °F 65.1 °F 29.97 in SSE 11.0 mph 17.0 mph 62% 0.00 in
13:14 79.4 °F 65.7 °F 29.97 in WSW 3.0 mph 16.0 mph 63% 0.00 in
13:19 79.7 °F 65.5 °F 29.97 in WSW 11.0 mph 18.0 mph 62% 0.00 in
13:24 79.7 °F 65.5 °F 29.97 in WSW 10.0 mph 18.0 mph 62% 0.00 in
13:29 80.1 °F 65.9 °F 29.97 in NE 8.0 mph 17.0 mph 62% 0.00 in
13:34 79.9 °F 65.2 °F 29.97 in SSW 5.0 mph 17.0 mph 61% 0.00 in
13:39 80.4 °F 65.7 °F 29.97 in WSW 7.0 mph 17.0 mph 61% 0.00 in
13:44 80.7 °F 66.5 °F 29.96 in WSW 7.0 mph 17.0 mph 62% 0.00 in
13:49 80.4 °F 66.2 °F 29.96 in WSW 8.0 mph 17.0 mph 62% 0.00 in
13:54 80.3 °F 66.1 °F 29.96 in WSW 9.0 mph 23.0 mph 62% 0.00 in
13:59 80.2 °F 66.0 °F 29.95 in WSW 9.0 mph 18.0 mph 62% 0.00 in
14:04 80.4 °F 65.2 °F 29.96 in West 14.0 mph 16.0 mph 60% 0.00 in
14:09 80.7 °F 66.5 °F 29.96 in WNW 8.0 mph 19.0 mph 62% 0.00 in
14:14 81.1 °F 65.9 °F 29.95 in WSW 9.0 mph 19.0 mph 60% 0.00 in
14:19 81.8 °F 65.6 °F 29.95 in WSW 8.0 mph 19.0 mph 58% 0.00 in
14:24 81.6 °F 65.9 °F 29.95 in WSW 8.0 mph 16.0 mph 59% 0.00 in
14:29 81.6 °F 65.4 °F 29.95 in WSW 7.0 mph 17.0 mph 58% 0.00 in
14:34 81.8 °F 66.6 °F 29.95 in SW 7.0 mph 16.0 mph 60% 0.00 in
14:39 81.8 °F 65.6 °F 29.95 in West 13.0 mph 17.0 mph 58% 0.00 in
14:44 82.1 °F 66.8 °F 29.95 in West 8.0 mph 17.0 mph 60% 0.00 in
14:49 80.8 °F 64.6 °F 29.95 in WSW 9.0 mph 18.0 mph 58% 0.00 in
14:54 80.9 °F 64.7 °F 29.95 in WSW 7.0 mph 21.0 mph 58% 0.00 in
14:59 81.1 °F 65.9 °F 29.95 in SW 7.0 mph 15.0 mph 60% 0.00 in
15:04 81.3 °F 65.1 °F 29.95 in West 15.0 mph 16.0 mph 58% 0.00 in
15:09 82.0 °F 66.3 °F 29.95 in West 5.0 mph 15.0 mph 59% 0.00 in
15:14 81.9 °F 65.7 °F 29.95 in West 8.0 mph 19.0 mph 58% 0.00 in
15:19 82.5 °F 65.7 °F 29.95 in WSW 9.0 mph 19.0 mph 57% 0.00 in
15:24 83.1 °F 64.7 °F 29.95 in WSW 8.0 mph 19.0 mph 54% 0.00 in
15:29 83.4 °F 64.5 °F 29.95 in WSW 8.0 mph 19.0 mph 53% 0.00 in
15:34 83.5 °F 64.6 °F 29.95 in West 9.0 mph 19.0 mph 53% 0.00 in
15:39 84.2 °F 64.1 °F 29.95 in SW 10.0 mph 19.0 mph 51% 0.00 in
15:44 84.1 °F 63.5 °F 29.95 in WNW 4.0 mph 26.0 mph 50% 0.00 in
15:49 85.0 °F 63.7 °F 29.95 in WSW 3.0 mph 14.0 mph 49% 0.00 in
15:54 85.3 °F 64.0 °F 29.95 in WNW 9.0 mph 20.0 mph 49% 0.00 in
15:59 85.3 °F 64.6 °F 29.95 in WSW 9.0 mph 21.0 mph 50% 0.00 in
16:04 85.2 °F 63.3 °F 29.95 in West 12.0 mph 16.0 mph 48% 0.00 in
16:09 85.6 °F 64.2 °F 29.95 in West 11.0 mph 17.0 mph 49% 0.00 in
16:14 85.4 °F 63.5 °F 29.94 in WSW 9.0 mph 18.0 mph 48% 0.00 in
16:19 85.5 °F 61.7 °F 29.95 in WSW 10.0 mph 22.0 mph 45% 0.00 in
16:24 85.9 °F 63.9 °F 29.94 in WSW 9.0 mph 22.0 mph 48% 0.00 in
16:29 85.9 °F 62.1 °F 29.94 in WSW 8.0 mph 23.0 mph 45% 0.00 in
16:34 85.6 °F 63.1 °F 29.94 in SW 15.0 mph 16.0 mph 47% 0.00 in
16:39 85.4 °F 62.9 °F 29.94 in WSW 7.0 mph 15.0 mph 47% 0.00 in
16:44 85.2 °F 63.3 °F 29.94 in WSW 8.0 mph 18.0 mph 48% 0.00 in
16:49 84.8 °F 64.1 °F 29.93 in SSW 12.0 mph 14.0 mph 50% 0.00 in
16:54 84.3 °F 63.1 °F 29.93 in WSW 14.0 mph 17.0 mph 49% 0.00 in
16:59 84.4 °F 64.3 °F 29.93 in West 11.0 mph 15.0 mph 51% 0.00 in
17:04 84.3 °F 63.6 °F 29.93 in SW 7.0 mph 15.0 mph 50% 0.00 in
17:09 83.9 °F 63.3 °F 29.93 in WSW 8.0 mph 16.0 mph 50% 0.00 in
17:14 83.5 °F 63.5 °F 29.94 in WSW 8.0 mph 18.0 mph 51% 0.00 in
17:19 83.1 °F 64.2 °F 29.93 in WSW 8.0 mph 18.0 mph 53% 0.00 in
17:24 83.0 °F 63.6 °F 29.94 in WSW 8.0 mph 20.0 mph 52% 0.00 in
17:29 82.2 °F 63.4 °F 29.93 in SSW 8.0 mph 15.0 mph 53% 0.00 in
17:34 81.8 °F 63.0 °F 29.93 in SW 12.0 mph 16.0 mph 53% 0.00 in
17:39 81.9 °F 63.1 °F 29.93 in WSW 9.0 mph 16.0 mph 53% 0.00 in
17:44 82.2 °F 62.8 °F 29.93 in WSW 8.0 mph 16.0 mph 52% 0.00 in
17:49 82.5 °F 63.1 °F 29.92 in WSW 7.0 mph 15.0 mph 52% 0.00 in
17:54 82.9 °F 62.9 °F 29.92 in SW 10.0 mph 11.0 mph 51% 0.00 in
17:59 83.1 °F 62.5 °F 29.92 in SSW 7.0 mph 14.0 mph 50% 0.00 in
18:04 82.7 °F 62.2 °F 29.92 in WSW 5.0 mph 14.0 mph 50% 0.00 in
18:09 82.7 °F 62.2 °F 29.92 in WSW 8.0 mph 17.0 mph 50% 0.00 in
18:14 82.8 °F 62.3 °F 29.92 in WSW 7.0 mph 17.0 mph 50% 0.00 in
18:19 82.3 °F 61.2 °F 29.92 in WSW 9.0 mph 14.0 mph 49% 0.00 in
18:24 82.1 °F 62.2 °F 29.92 in SW 3.0 mph 13.0 mph 51% 0.00 in
18:29 81.8 °F 61.9 °F 29.91 in SW 8.0 mph 11.0 mph 51% 0.00 in
18:34 81.8 °F 62.5 °F 29.91 in West 3.0 mph 13.0 mph 52% 0.00 in
18:39 81.7 °F 61.8 °F 29.91 in WSW 7.0 mph 16.0 mph 51% 0.00 in
18:44 81.6 °F 62.3 °F 29.92 in WSW 6.0 mph 16.0 mph 52% 0.00 in
18:49 81.6 °F 62.3 °F 29.91 in WSW 6.0 mph 12.0 mph 52% 0.00 in
18:54 81.6 °F 62.3 °F 29.91 in WSW 6.0 mph 13.0 mph 52% 0.00 in
19:04 81.4 °F 62.1 °F 29.91 in WSW 6.0 mph 13.0 mph 52% 0.00 in
19:09 81.2 °F 62.4 °F 29.91 in WSW 7.0 mph 13.0 mph 53% 0.00 in
19:14 80.9 °F 62.7 °F 29.91 in SW 4.0 mph 13.0 mph 54% 0.00 in
19:19 80.3 °F 62.7 °F 29.91 in West 5.0 mph 11.0 mph 55% 0.00 in
19:24 79.4 °F 62.3 °F 29.92 in WSW 6.0 mph 12.0 mph 56% 0.00 in
19:29 78.6 °F 62.6 °F 29.92 in SW 7.0 mph 11.0 mph 58% 0.00 in
19:34 77.7 °F 62.7 °F 29.92 in SW 7.0 mph 13.0 mph 60% 0.00 in
19:39 77.1 °F 62.6 °F 29.92 in WSW 7.0 mph 13.0 mph 61% 0.00 in
19:44 76.6 °F 62.6 °F 29.92 in WSW 6.0 mph 11.0 mph 62% 0.00 in
19:49 76.2 °F 62.7 °F 29.92 in WSW 5.0 mph 10.0 mph 63% 0.00 in
19:54 76.0 °F 62.5 °F 29.92 in WSW 3.0 mph 7.0 mph 63% 0.00 in
19:59 76.0 °F 62.9 °F 29.92 in WSW 6.0 mph 7.0 mph 64% 0.00 in
20:04 76.1 °F 62.6 °F 29.91 in SSW 5.0 mph 10.0 mph 63% 0.00 in
20:09 76.2 °F 62.7 °F 29.91 in SW 5.0 mph 10.0 mph 63% 0.00 in
20:14 76.5 °F 62.5 °F 29.92 in WSW 4.0 mph 9.0 mph 62% 0.00 in
20:19 76.7 °F 62.2 °F 29.91 in WSW 4.0 mph 9.0 mph 61% 0.00 in
20:24 76.7 °F 62.2 °F 29.91 in WSW 4.0 mph 10.0 mph 61% 0.00 in
20:29 76.8 °F 62.3 °F 29.91 in WSW 2.0 mph 9.0 mph 61% 0.00 in
20:34 76.8 °F 62.3 °F 29.91 in WSW 4.0 mph 6.0 mph 61% 0.00 in
20:39 76.9 °F 62.4 °F 29.91 in SW 3.0 mph 8.0 mph 61% 0.00 in
20:44 76.9 °F 62.4 °F 29.91 in WSW 1.0 mph 6.0 mph 61% 0.00 in
20:49 76.9 °F 62.4 °F 29.91 in SW 2.0 mph 10.0 mph 61% 0.00 in
20:54 76.8 °F 62.3 °F 29.91 in SW 4.0 mph 6.0 mph 61% 0.00 in
20:59 76.9 °F 62.4 °F 29.91 in SW 5.0 mph 7.0 mph 61% 0.00 in
21:04 77.2 °F 62.2 °F 29.91 in SW 2.0 mph 7.0 mph 60% 0.00 in
21:09 77.3 °F 62.8 °F 29.91 in SW 3.0 mph 7.0 mph 61% 0.00 in
21:14 77.3 °F 62.8 °F 29.91 in SW 3.0 mph 7.0 mph 61% 0.00 in
21:19 77.4 °F 62.9 °F 29.90 in SW 3.0 mph 7.0 mph 61% 0.00 in
21:24 77.2 °F 62.7 °F 29.91 in SW 2.0 mph 5.0 mph 61% 0.00 in
21:29 77.2 °F 62.7 °F 29.91 in SW 2.0 mph 6.0 mph 61% 0.00 in
21:34 77.3 °F 62.8 °F 29.91 in SW 2.0 mph 6.0 mph 61% 0.00 in
21:39 77.3 °F 62.8 °F 29.91 in SW 2.0 mph 6.0 mph 61% 0.00 in
21:44 77.4 °F 62.9 °F 29.91 in SW 2.0 mph 6.0 mph 61% 0.00 in
21:49 77.4 °F 62.9 °F 29.91 in SW 2.0 mph 5.0 mph 61% 0.00 in
21:54 77.5 °F 63.0 °F 29.91 in West 4.0 mph 6.0 mph 61% 0.00 in
21:59 77.5 °F 63.0 °F 29.91 in SSW 1.0 mph 5.0 mph 61% 0.00 in
22:04 77.6 °F 63.1 °F 29.91 in SW 4.0 mph 7.0 mph 61% 0.00 in
22:09 77.7 °F 63.2 °F 29.91 in SSW 4.0 mph 5.0 mph 61% 0.00 in
22:14 77.8 °F 63.3 °F 29.91 in SSW 3.0 mph 7.0 mph 61% 0.00 in
22:19 77.9 °F 63.4 °F 29.91 in SW 3.0 mph 7.0 mph 61% 0.00 in
22:24 78.1 °F 63.6 °F 29.91 in SW 2.0 mph 8.0 mph 61% 0.00 in
22:29 78.1 °F 63.6 °F 29.91 in WSW 1.0 mph 6.0 mph 61% 0.00 in
22:34 77.9 °F 63.4 °F 29.91 in SW 2.0 mph 4.0 mph 61% 0.00 in
22:39 77.8 °F 63.3 °F 29.91 in Calm   5.0 mph 61% 0.00 in
22:44 77.5 °F 63.5 °F 29.91 in SW 1.0 mph 5.0 mph 62% 0.00 in
22:49 77.4 °F 63.4 °F 29.91 in SW 1.0 mph 5.0 mph 62% 0.00 in
22:54 77.2 °F 63.2 °F 29.91 in SW 1.0 mph 5.0 mph 62% 0.00 in
22:59 77.0 °F 63.4 °F 29.92 in Calm   3.0 mph 63% 0.00 in
23:04 76.8 °F 63.2 °F 29.92 in Calm   4.0 mph 63% 0.00 in
23:09 76.7 °F 63.2 °F 29.91 in SSW 4.0 mph 4.0 mph 63% 0.00 in
23:14 76.8 °F 63.2 °F 29.91 in SSW 2.0 mph 5.0 mph 63% 0.00 in
23:19 76.7 °F 63.6 °F 29.91 in SSW 1.0 mph 5.0 mph 64% 0.00 in
23:24 76.5 °F 63.4 °F 29.91 in SW 1.0 mph 3.0 mph 64% 0.00 in
23:29 76.2 °F 63.1 °F 29.91 in Calm   4.0 mph 64% 0.00 in
23:34 76.1 °F 63.5 °F 29.91 in SW 1.0 mph 4.0 mph 65% 0.00 in
23:39 76.0 °F 63.4 °F 29.91 in SW 1.0 mph 4.0 mph 65% 0.00 in
23:44 75.5 °F 63.3 °F 29.91 in Calm   2.0 mph 66% 0.00 in
23:49 75.2 °F 63.1 °F 29.91 in Calm   2.0 mph 66% 0.00 in
23:54 74.9 °F 63.2 °F 29.91 in Calm   2.0 mph 67% 0.00 in
23:59 74.8 °F 63.1 °F 29.91 in SW 1.0 mph 3.0 mph 67% 0.00 in
Buffalo, New York, USA
Compliments of Weather Underground - 2.5 mb